Cherry Point, NC

4:08 AM EST on February 14, 2016 (GMT -0500)
Cherry Point Marine Corps Air Station

Weather History for KNKT - January, 2012

Change the Weather History Date:

Wednesday, January 25, 2012

  Actual Average Record
Temperature  
Mean Temperature 54 °F -  
Max Temperature 63 °F 51 °F 64 °F (1997)
Min Temperature 44 °F 33 °F 9 °F (2003)
Degree Days  
Heating Degree Days 12    
Growing Degree Days 4 (Base 50)    
Moisture  
Dew Point 45 °F    
Average Humidity 78    
Maximum Humidity 93    
Minimum Humidity 53    
Precipitation  
Precipitation 0.00 in - - ()
Sea Level Pressure  
Sea Level Pressure 30.25 in    
Wind  
Wind Speed 3 mph ()    
Max Wind Speed 12 mph    
Max Gust Speed -    
Visibility 9.1 miles    
Events      
Averages and records for this station are not official NWS values.
T = Trace of Precipitation, MM = Missing Value Source: Averaged Metar Reports

Daily Weather History Graph

Daily Weather History Graph

Search for Another Location

Airport or City:

Trip Planner

Search our weather history database for the weather conditions in past years. The results will help you decide how hot, cold, wet, or windy it might be!

Date:

Astronomy

Jan. 25, 2012 Rise Set
Actual Time 7:11 AM EST 5:28 PM EST
Civil Twilight 6:44 AM EST 5:55 PM EST
Nautical Twilight 6:13 AM EST 6:26 PM EST
Astronomical Twilight 5:43 AM EST 6:56 PM EST
Moon 8:17 AM EST (1/25) 8:10 PM EST (1/25)
Length of Visible Light 11h 11m
Length of Day
10h 17m
Waxing Crescent, 6% of the Moon is Illuminated
Jan 25
Waxing Crescent
Jan 30
First Quarter
Feb 7
Full
Feb 14
Last Quarter
Feb 21
New

Hourly Weather History & Observations

Time (EST) Temp. Windchill Dew Point Humidity Pressure Visibility Wind Dir Wind Speed Gust Speed Precip Events Conditions
12:54 AM 51.1 °F - 48.0 °F 89% 30.20 in 10.0 mi NNW 6.9 mph - N/A   Clear
1:54 AM 50.0 °F - 46.9 °F 89% 30.22 in 10.0 mi Calm Calm - N/A   Clear
2:54 AM 50.0 °F - 46.9 °F 89% 30.22 in 10.0 mi Calm Calm - N/A   Clear
3:27 AM 46.4 °F - 44.6 °F 93% 30.23 in 1.8 mi Calm Calm - N/A   Clear
3:43 AM 48.2 °F - 44.6 °F 87% 30.24 in 3.0 mi Calm Calm - N/A   Clear
3:54 AM 48.0 °F - 46.0 °F 93% 30.23 in 10.0 mi Calm Calm - N/A   Clear
4:54 AM 46.0 °F 43.9 °F 43.0 °F 89% 30.24 in 10.0 mi NW 4.6 mph - N/A   Clear
5:54 AM 46.0 °F 43.1 °F 42.1 °F 86% 30.26 in 10.0 mi North 5.8 mph - N/A   Clear
6:54 AM 44.1 °F - 39.0 °F 82% 30.28 in 10.0 mi Calm Calm - N/A   Clear
7:54 AM 48.0 °F - 41.0 °F 77% 30.28 in 10.0 mi North 3.5 mph - N/A   Clear
8:54 AM 52.0 °F - 41.0 °F 66% 30.30 in 10.0 mi North 4.6 mph - N/A   Clear
9:54 AM 54.0 °F - 43.0 °F 66% 30.31 in 10.0 mi NNE 4.6 mph - N/A   Clear
10:54 AM 59.0 °F - 46.0 °F 62% 30.31 in 10.0 mi NNE 4.6 mph - N/A   Clear
11:54 AM 63.0 °F - 46.0 °F 54% 30.29 in 10.0 mi NE 6.9 mph - N/A   Clear
12:54 PM 63.0 °F - 46.0 °F 54% 30.27 in 10.0 mi NE 11.5 mph - N/A   Clear
1:54 PM 62.1 °F - 45.0 °F 53% 30.26 in 10.0 mi NE 11.5 mph - N/A   Clear
2:54 PM 62.1 °F - 45.0 °F 53% 30.25 in 10.0 mi NE 9.2 mph - N/A   Clear
3:54 PM 60.1 °F - 46.0 °F 60% 30.24 in 10.0 mi NE 9.2 mph - N/A   Clear
4:54 PM 54.0 °F - 46.9 °F 77% 30.23 in 10.0 mi ENE 6.9 mph - N/A   Clear
5:54 PM 52.0 °F - 46.0 °F 80% 30.23 in 10.0 mi NE 4.6 mph - N/A   Clear
6:54 PM 50.0 °F - 45.0 °F 83% 30.24 in 10.0 mi East 3.5 mph - N/A   Clear
7:54 PM 48.9 °F - 45.0 °F 86% 30.25 in 10.0 mi Calm Calm - N/A   Clear
8:54 PM 46.9 °F - 43.0 °F 86% 30.23 in 10.0 mi Calm Calm - N/A   Clear
9:54 PM 48.0 °F - 44.1 °F 86% 30.23 in 10.0 mi Calm Calm - N/A   Clear
10:54 PM 48.0 °F - 45.0 °F 89% 30.22 in 10.0 mi Calm Calm - N/A   Clear
11:54 PM 46.0 °F - 43.0 °F 89% 30.20 in 1.8 mi Calm Calm - N/A   Clear